Stündliche Wetter Bolshie Savrushi

Heute, 24 Januar, Sonntag

Zeit Temperatur Niederschläge Wind Luftdruck Luftfeuchtigkeit
00:00 -13°C° 0.1 mm 5 m/S 753 mmHg 94%
01:00 -4°C° 0.1 mm 4 m/S 751 mmHg 97%
02:00 -2°C° 0.1 mm 4 m/S 751 mmHg 98%
03:00 0°C° 0.1 mm 3 m/S 751 mmHg 99%
04:00 -1°C° 0.3 mm 4 m/S 751 mmHg 99%
05:00 -1°C° 0.3 mm 4 m/S 751 mmHg 99%
06:00 -1°C° 0.3 mm 4 m/S 751 mmHg 99%
07:00 -1°C° 0.2 mm 4 m/S 752 mmHg 99%
08:00 -1°C° 0.2 mm 4 m/S 752 mmHg 99%
09:00 -1°C° 0.2 mm 4 m/S 752 mmHg 99%
10:00 -1°C° 0 mm 4 m/S 753 mmHg 99%
11:00 -1°C° 0 mm 4 m/S 753 mmHg 99%
12:00 -1°C° 0 mm 4 m/S 753 mmHg 99%
13:00 -1°C° 0 mm 4 m/S 753 mmHg 99%
14:00 -1°C° 0 mm 4 m/S 753 mmHg 99%
15:00 0°C° 0 mm 3 m/S 753 mmHg 99%
16:00 -1°C° 0.1 mm 4 m/S 754 mmHg 99%
17:00 -1°C° 0.1 mm 4 m/S 754 mmHg 99%
18:00 -1°C° 0.1 mm 4 m/S 754 mmHg 99%
19:00 -1°C° 0.2 mm 4 m/S 754 mmHg 99%
20:00 -1°C° 0.2 mm 4 m/S 755 mmHg 99%
21:00 -1°C° 0.2 mm 4 m/S 755 mmHg 99%
22:00 -1°C° 0.1 mm 4 m/S 755 mmHg 98%
23:00 -1°C° 0.1 mm 4 m/S 755 mmHg 98%

Morgen, 25 Januar, Montag

Zeit Temperatur Niederschläge Wind Luftdruck Luftfeuchtigkeit
00:00 -1°C° 0.1 mm 4 m/S 755 mmHg 98%
01:00 -1°C° 0.1 mm 4 m/S 755 mmHg 97%
02:00 -2°C° 0.1 mm 4 m/S 755 mmHg 97%
03:00 -2°C° 0.1 mm 4 m/S 756 mmHg 96%
04:00 -2°C° 0.1 mm 5 m/S 756 mmHg 96%
05:00 -2°C° 0.1 mm 5 m/S 756 mmHg 96%
06:00 -2°C° 0.1 mm 5 m/S 756 mmHg 96%
07:00 -2°C° 0.2 mm 5 m/S 756 mmHg 96%
08:00 -2°C° 0.2 mm 5 m/S 757 mmHg 96%
09:00 -4°C° 0.2 mm 5 m/S 757 mmHg 96%
10:00 -4°C° 0.1 mm 5 m/S 757 mmHg 95%
11:00 -4°C° 0.1 mm 5 m/S 757 mmHg 94%
12:00 -5°C° 0.1 mm 5 m/S 757 mmHg 93%
13:00 -5°C° 0 mm 5 m/S 757 mmHg 93%
14:00 -5°C° 0 mm 5 m/S 757 mmHg 93%
15:00 -5°C° 0 mm 4 m/S 758 mmHg 93%
16:00 -5°C° 0 mm 4 m/S 758 mmHg 94%
17:00 -7°C° 0 mm 4 m/S 758 mmHg 95%
18:00 -7°C° 0 mm 4 m/S 758 mmHg 97%
19:00 -6°C° 0 mm 5 m/S 758 mmHg 96%
20:00 -6°C° 0 mm 5 m/S 758 mmHg 96%
21:00 -5°C° 0 mm 5 m/S 758 mmHg 95%
22:00 -5°C° 0 mm 5 m/S 758 mmHg 94%
23:00 -5°C° 0 mm 5 m/S 758 mmHg 94%

übermorgen, 26 Januar, Dienstag

Zeit Temperatur Niederschläge Wind Luftdruck Luftfeuchtigkeit
00:00 -5°C° 0 mm 5 m/S 757 mmHg 93%
01:00 -5°C° 0 mm 5 m/S 757 mmHg 93%
02:00 -4°C° 0 mm 4 m/S 757 mmHg 93%
03:00 -4°C° 0 mm 4 m/S 757 mmHg 93%
04:00 -4°C° 0 mm 4 m/S 757 mmHg 94%
05:00 -4°C° 0 mm 4 m/S 757 mmHg 94%
06:00 -4°C° 0 mm 4 m/S 757 mmHg 94%
07:00 -4°C° 0 mm 4 m/S 757 mmHg 94%
08:00 -4°C° 0 mm 4 m/S 757 mmHg 94%
09:00 -4°C° 0 mm 4 m/S 757 mmHg 93%
10:00 -4°C° 0 mm 4 m/S 757 mmHg 92%
11:00 -5°C° 0 mm 5 m/S 757 mmHg 91%
12:00 -4°C° 0 mm 5 m/S 757 mmHg 90%
13:00 -5°C° 0 mm 5 m/S 756 mmHg 91%
14:00 -4°C° 0 mm 4 m/S 756 mmHg 91%
15:00 -4°C° 0 mm 4 m/S 756 mmHg 92%
16:00 -4°C° 0 mm 4 m/S 756 mmHg 93%
17:00 -4°C° 0 mm 4 m/S 756 mmHg 93%
18:00 -5°C° 0 mm 5 m/S 756 mmHg 94%
19:00 -6°C° 0 mm 5 m/S 756 mmHg 94%
20:00 -6°C° 0 mm 5 m/S 756 mmHg 94%
21:00 -7°C° 0 mm 5 m/S 756 mmHg 94%
22:00 -7°C° 0 mm 5 m/S 756 mmHg 94%
23:00 -7°C° 0 mm 5 m/S 755 mmHg 93%

27 Januar, Mittwoch

Zeit Temperatur Niederschläge Wind Luftdruck Luftfeuchtigkeit
00:00 -6°C° 0 mm 5 m/S 755 mmHg 93%
01:00 -7°C° 0 mm 5 m/S 755 mmHg 93%
02:00 -7°C° 0 mm 5 m/S 755 mmHg 93%
03:00 -7°C° 0 mm 5 m/S 755 mmHg 93%
04:00 -8°C° 0 mm 5 m/S 754 mmHg 93%
05:00 -8°C° 0 mm 5 m/S 754 mmHg 93%
06:00 -8°C° 0 mm 5 m/S 754 mmHg 93%
07:00 -8°C° 0 mm 5 m/S 754 mmHg 93%
08:00 -9°C° 0 mm 6 m/S 754 mmHg 93%
09:00 -9°C° 0 mm 6 m/S 754 mmHg 93%
10:00 -9°C° 0 mm 6 m/S 754 mmHg 93%
11:00 -8°C° 0 mm 6 m/S 754 mmHg 93%
12:00 -8°C° 0 mm 6 m/S 754 mmHg 93%
13:00 -8°C° 0 mm 6 m/S 754 mmHg 93%
14:00 -7°C° 0 mm 5 m/S 754 mmHg 93%
15:00 -6°C° 0 mm 5 m/S 753 mmHg 94%
16:00 -6°C° 0.3 mm 5 m/S 753 mmHg 94%
17:00 -6°C° 0.3 mm 5 m/S 753 mmHg 95%
18:00 -6°C° 0.3 mm 6 m/S 753 mmHg 95%
19:00 -8°C° 0.2 mm 6 m/S 753 mmHg 94%
20:00 -8°C° 0.2 mm 6 m/S 753 mmHg 94%
21:00 -8°C° 0.2 mm 6 m/S 753 mmHg 93%
22:00 -9°C° 0 mm 6 m/S 753 mmHg 93%
23:00 -9°C° 0 mm 6 m/S 753 mmHg 93%

28 Januar, Donnerstag

Zeit Temperatur Niederschläge Wind Luftdruck Luftfeuchtigkeit
00:00 -9°C° 0 mm 6 m/S 753 mmHg 93%
01:00 -10°C° 0.1 mm 6 m/S 752 mmHg 93%
02:00 -10°C° 0.1 mm 5 m/S 752 mmHg 94%
03:00 -10°C° 0.1 mm 5 m/S 752 mmHg 94%
04:00 -10°C° 0 mm 5 m/S 752 mmHg 94%
05:00 -10°C° 0 mm 5 m/S 752 mmHg 94%
06:00 -10°C° 0 mm 5 m/S 751 mmHg 94%
07:00 -10°C° 0 mm 5 m/S 751 mmHg 94%
08:00 -11°C° 0 mm 5 m/S 751 mmHg 94%
09:00 -11°C° 0 mm 5 m/S 751 mmHg 94%
10:00 -11°C° 0 mm 5 m/S 751 mmHg 93%
11:00 -10°C° 0 mm 5 m/S 750 mmHg 93%
12:00 -10°C° 0 mm 5 m/S 750 mmHg 92%
13:00 -9°C° 0 mm 4 m/S 749 mmHg 92%
14:00 -9°C° 0 mm 4 m/S 749 mmHg 92%
15:00 -9°C° 0 mm 4 m/S 749 mmHg 91%
16:00 -8°C° 0 mm 3 m/S 749 mmHg 92%
17:00 -8°C° 0 mm 3 m/S 748 mmHg 93%
18:00 -8°C° 0 mm 3 m/S 748 mmHg 93%
19:00 -8°C° 0 mm 3 m/S 748 mmHg 94%
20:00 -9°C° 0 mm 3 m/S 748 mmHg 94%
21:00 -9°C° 0 mm 3 m/S 747 mmHg 95%

29 Januar, Freitag

Zeit Temperatur Niederschläge Wind Luftdruck Luftfeuchtigkeit
Mehr zeigen

Wir brauchen deine Erlaubnis

Meteoprog und unser Service Anbieter werden persönliche Daten aufbewahren, so wie Cookies, Geräte Bezeichnung oder ähnliche Technologien von deinem Gerät und Prozess, so wie Persönliche Daten Inhalte und Werbungen, genauso wie social Media und den Verkehr zu analysieren.

  • Aufbewahrung und/oder Zugang zu deiner Geräte Informationen.

    Cookies, Geräte Bezeichnung oder andere Informationen, können aufbewahrt oder Zugang zu deinem Gerät erhalten, für den Grund, der oben angegeben wird.

  • Personalisierte Werbung und Inhalte, Messungen, Einblick in das Publikum und Produkt Entwicklung.

    Werbungen und Inhalte können personalisiert werden, basierend auf ein Profil. Mehr Daten können besser personalisierte Werbungen und Inhalte hinzufügen. Werbung und Inhalte können gezeigt und gemessen werden. Einblicke über das Publikum, welche die Werbung gesehen haben und den Inhalt, können abgeleitet werden. So wie Daten können genutzt werden, um es zu verbessern oder die Benutzer Erfahrung zu verbessern das System und die Software.

Wenn du “Ich stimme zu” klickst, erlaubst du uns, die Cookies zu benutzen die Geräte Bezeichnung, den Web oder ähnliche Technologien zu benutzen. Deine Settings, können in deinem Gerät bei deinem Browser geändert werden.

Für den bestimmten Zweck, berechtigten Interessen beruhen darauf, mehr als auf den Inhalt. Du kannst mehr darüber in unseren Privaten und Cookie Politik lesen.